[keps] orb09316.amsat

Ray Hoad ray.hoad at mypbmail.com
Thu Nov 12 19:42:24 PST 2009


SB KEPS @ AMSAT  $ORB09316.O
Orbital Elements  09316.OSCAR

HR AMSAT ORBITAL ELEMENTS FOR OSCAR SATELLITES
FROM WA5QGD FORT WORTH,TX November 12, 2009
Send Subscribe/unsubscribe to KEPS at http://www.amsat.org/mailman/listinfo/keps
BID: ORB09316.O
TO ALL RADIO AMATEURS BT

Satellite: AO-07
Catalog number: 07530
Epoch time:      09316.60839158
Element set:     628
Inclination:      101.4168 deg
RA of node:       335.7830 deg
Eccentricity:    0.0012000
Arg of perigee:   339.0225 deg
Mean anomaly:     021.0348 deg
Mean motion:   12.53577024 rev/day
Decay rate:       -2.7e-07 rev/day^2
Epoch rev:           60131
Checksum:              260

Satellite: FO-29
Catalog number: 24278
Epoch time:      09316.20263448
Element set:     173
Inclination:      098.5230 deg
RA of node:       170.1732 deg
Eccentricity:    0.0350303
Arg of perigee:   326.8138 deg
Mean anomaly:     031.1457 deg
Mean motion:   13.52946326 rev/day
Decay rate:      -1.30e-06 rev/day^2
Epoch rev:           65376
Checksum:              290

Satellite: SO-33
Catalog number: 25509
Epoch time:      09315.95595759
Element set:    0584
Inclination:      031.4338 deg
RA of node:       296.9242 deg
Eccentricity:    0.0354495
Arg of perigee:   190.5673 deg
Mean anomaly:     168.7351 deg
Mean motion:   14.28272410 rev/day
Decay rate:       2.65e-06 rev/day^2
Epoch rev:           57697
Checksum:              352

Satellite: RS-22
Catalog number: 27939
Epoch time:      09316.23670021
Element set:     936
Inclination:      097.9191 deg
RA of node:       185.5224 deg
Eccentricity:    0.0014216
Arg of perigee:   028.8807 deg
Mean anomaly:     331.3190 deg
Mean motion:   14.63355668 rev/day
Decay rate:       1.24e-06 rev/day^2
Epoch rev:           32722
Checksum:              302

Satellite: VO-52
Catalog number: 28650
Epoch time:      09315.68147646
Element set:     362
Inclination:      097.7240 deg
RA of node:       012.2390 deg
Eccentricity:    0.0025997
Arg of perigee:   267.8094 deg
Mean anomaly:     092.0133 deg
Mean motion:   14.81641882 rev/day
Decay rate:       3.77e-06 rev/day^2
Epoch rev:           24448
Checksum:              323

Satellite: SO-67
Catalog number: 35870
Epoch time:      09316.86512067
Element set:     167
Inclination:      097.3646 deg
RA of node:       005.8651 deg
Eccentricity:    0.0013356
Arg of perigee:   096.1143 deg
Mean anomaly:     016.5408 deg
Mean motion:   15.22847249 rev/day
Decay rate:       4.53e-06 rev/day^2
Epoch rev:             854
Checksum:              313

/EX
SB KEPS @ AMSAT  $ORB09316.D
Orbital Elements  09316.MICROS

HR AMSAT ORBITAL ELEMENTS FOR THE MICROSATS
FROM WA5QGD FORT WORTH,TX November 12, 2009
Send Subscribe/unsubscribe to KEPS at http://www.amsat.org/mailman/listinfo/keps
BID: ORB09316.D
TO ALL RADIO AMATEURS BT

Satellite: AO-16
Catalog number: 20439
Epoch time:      09316.42141400
Element set:     748
Inclination:      098.3013 deg
RA of node:       278.2384 deg
Eccentricity:    0.0011888
Arg of perigee:   089.5650 deg
Mean anomaly:     270.6906 deg
Mean motion:   14.31838724 rev/day
Decay rate:        1.1e-07 rev/day^2
Epoch rev:            3436
Checksum:              296

Satellite: LO-19
Catalog number: 20442
Epoch time:      09315.96511100
Element set:     660
Inclination:      098.2630 deg
RA of node:       284.4865 deg
Eccentricity:    0.0012938
Arg of perigee:   088.4720 deg
Mean anomaly:     271.7978 deg
Mean motion:   14.32072944 rev/day
Decay rate:        6.7e-07 rev/day^2
Epoch rev:            3446
Checksum:              310

Satellite: AO-27
Catalog number: 22825
Epoch time:      09315.85780367
Element set:     384
Inclination:      098.4567 deg
RA of node:       264.7658 deg
Eccentricity:    0.0008251
Arg of perigee:   183.4973 deg
Mean anomaly:     176.6146 deg
Mean motion:   14.29278321 rev/day
Decay rate:        7.2e-07 rev/day^2
Epoch rev:           84100
Checksum:              336

Satellite: IO-26
Catalog number: 22826
Epoch time:      09315.96193351
Element set:     117
Inclination:      098.4501 deg
RA of node:       265.5543 deg
Eccentricity:    0.0008690
Arg of perigee:   179.4261 deg
Mean anomaly:     180.6933 deg
Mean motion:   14.29531344 rev/day
Decay rate:        1.5e-07 rev/day^2
Epoch rev:           84112
Checksum:              301

Satellite: GO-32
Catalog number: 25397
Epoch time:      09316.13745904
Element set:      37
Inclination:      098.3194 deg
RA of node:       330.5057 deg
Eccentricity:    0.0001485
Arg of perigee:   140.3035 deg
Mean anomaly:     219.8245 deg
Mean motion:   14.23166532 rev/day
Decay rate:        6.0e-07 rev/day^2
Epoch rev:           58917
Checksum:              295

Satellite: NO-44
Catalog number: 26931
Epoch time:      09316.04453761
Element set:     311
Inclination:      067.0531 deg
RA of node:       043.4174 deg
Eccentricity:    0.0007093
Arg of perigee:   269.7763 deg
Mean anomaly:     090.2526 deg
Mean motion:   14.29573216 rev/day
Decay rate:       1.32e-06 rev/day^2
Epoch rev:           42371
Checksum:              284

Satellite: SO-50
Catalog number: 27607
Epoch time:      09315.94067873
Element set:    0031
Inclination:      064.5585 deg
RA of node:       296.3432 deg
Eccentricity:    0.0049517
Arg of perigee:   166.9406 deg
Mean anomaly:     193.3012 deg
Mean motion:   14.71473821 rev/day
Decay rate:       1.21e-06 rev/day^2
Epoch rev:           37041
Checksum:              299

Satellite: CO-55
Catalog number: 27844
Epoch time:      09315.54271396
Element set:     709
Inclination:      098.7126 deg
RA of node:       322.6361 deg
Eccentricity:    0.0010631
Arg of perigee:   078.7951 deg
Mean anomaly:     281.4420 deg
Mean motion:   14.20665865 rev/day
Decay rate:        4.4e-07 rev/day^2
Epoch rev:           33018
Checksum:              308

Satellite: CO-57
Catalog number: 27848
Epoch time:      09316.73842120
Element set:     661
Inclination:      098.7176 deg
RA of node:       322.8826 deg
Eccentricity:    0.0010781
Arg of perigee:   080.2740 deg
Mean anomaly:     279.9650 deg
Mean motion:   14.20464232 rev/day
Decay rate:        1.7e-07 rev/day^2
Epoch rev:           33031
Checksum:              302

Satellite: AO-51
Catalog number: 28375
Epoch time:      09316.45655738
Element set:     531
Inclination:      098.0536 deg
RA of node:       317.4399 deg
Eccentricity:    0.0085120
Arg of perigee:   035.2623 deg
Mean anomaly:     325.4158 deg
Mean motion:   14.40658535 rev/day
Decay rate:        2.3e-07 rev/day^2
Epoch rev:           28230
Checksum:              306

Satellite: CO-56
Catalog number: 28941
Epoch time:      09297.68475575
Element set:     556
Inclination:      098.0955 deg
RA of node:       138.9518 deg
Eccentricity:    0.0011688
Arg of perigee:   319.8691 deg
Mean anomaly:     040.7485 deg
Mean motion:   16.46998778 rev/day
Decay rate:  1.4491492e-01 rev/day^2
Epoch rev:           20790
Checksum:              407

Satellite: GENESAT1
Catalog number: 29655
Epoch time:      09316.45524496
Element set:     859
Inclination:      040.0221 deg
RA of node:       332.0438 deg
Eccentricity:    0.0003439
Arg of perigee:   192.0299 deg
Mean anomaly:     168.0437 deg
Mean motion:   15.69485926 rev/day
Decay rate:     2.0267e-04 rev/day^2
Epoch rev:           16574
Checksum:              322

Satellite: CP3
Catalog number: 31129
Epoch time:      09316.10881075
Element set:     323
Inclination:      097.9708 deg
RA of node:       001.9617 deg
Eccentricity:    0.0102233
Arg of perigee:   186.4593 deg
Mean anomaly:     173.5298 deg
Mean motion:   14.52179300 rev/day
Decay rate:       1.40e-06 rev/day^2
Epoch rev:           13635
Checksum:              286

Satellite: CO-65
Catalog number: 32785
Epoch time:      09315.83431125
Element set:     522
Inclination:      097.9287 deg
RA of node:       018.4419 deg
Eccentricity:    0.0013937
Arg of perigee:   272.5761 deg
Mean anomaly:     087.3841 deg
Mean motion:   14.81540461 rev/day
Decay rate:       2.46e-06 rev/day^2
Epoch rev:            8330
Checksum:              313

Satellite: KKS-1
Catalog number: 33493
Epoch time:      09316.83310052
Element set:     935
Inclination:      098.0688 deg
RA of node:       069.8031 deg
Eccentricity:    0.0021151
Arg of perigee:   119.5092 deg
Mean anomaly:     240.8233 deg
Mean motion:   14.80771556 rev/day
Decay rate:       3.63e-06 rev/day^2
Epoch rev:            4346
Checksum:              289

Satellite: SOHLA-1
Catalog number: 33496
Epoch time:      09316.83122261
Element set:     899
Inclination:      098.0480 deg
RA of node:       063.9069 deg
Eccentricity:    0.0006731
Arg of perigee:   160.6824 deg
Mean anomaly:     199.4633 deg
Mean motion:   14.69454881 rev/day
Decay rate:        7.2e-07 rev/day^2
Epoch rev:            4310
Checksum:              315

/EX
SB KEPS @ AMSAT  $ORB09316.W
Orbital Elements  09316.WEATHER

HR AMSAT ORBITAL ELEMENTS FOR WEATHER SATELLITES
FROM WA5QGD FORT WORTH,TX November 12, 2009
Send Subscribe/unsubscribe to KEPS at http://www.amsat.org/mailman/listinfo/keps
BID: ORB09316.W
TO ALL RADIO AMATEURS BT

Satellite: NOAA-10
Catalog number: 16969
Epoch time:      09316.62384335
Element set:     833
Inclination:      098.6807 deg
RA of node:       342.3815 deg
Eccentricity:    0.0012870
Arg of perigee:   121.7074 deg
Mean anomaly:     238.5359 deg
Mean motion:   14.27398298 rev/day
Decay rate:       -5.1e-07 rev/day^2
Epoch rev:           20468
Checksum:              329

Satellite: NOAA-11
Catalog number: 19531
Epoch time:      09316.78138903
Element set:     848
Inclination:      098.7802 deg
RA of node:       044.4096 deg
Eccentricity:    0.0012195
Arg of perigee:   046.9875 deg
Mean anomaly:     313.2299 deg
Mean motion:   14.14907353 rev/day
Decay rate:        2.3e-07 rev/day^2
Epoch rev:            9053
Checksum:              316

